Location: *
(47.6569°N, 7.4256°E)
Time: 22:35:54
(UTC+00:00)

Cosmos 2026 Rocket - Pass Details

Date: 14 December 2019
Orbit: 940 x 1000 km, 82.9° (Epoch: 22 January)

Event Time Altitude Azimuth Distance (km) Brightness Sun altitude
Rises 17:43:47 0° 198° (SSW) 3,592 7.4 -20.0°
Reaches altitude 10° 17:46:18 10° 202° (SSW) 2,650 6.7 -20.4°
Maximum altitude 17:52:15 60° 282° (WNW) 1,069 4.4 -21.4°
Drops below altitude 10° 17:58:18 10° 3° (N) 2,677 6.2 -22.4°
Sets 18:00:51 0° 7° (N) 3,632 6.8 -22.8°
